DMSP 5D-2 F13 DEB

Satellite information

Favourite Embed

Satellite Type and Status

DEBRISIN ORBIT

Key statistics

Satellite DMSP 5D-2 F13 DEB at a glance.

Uptime

11062

Days in orbit

Revolutions

≈ 14.7

Per day

Orbit

SSO

Sun Synchronous Orbit

Inclination

98.9

Latest

Satellite identification and parameters

Extended collection of information and parameters for DMSP 5D-2 F13 DEB.

Object identification

Identified? True

Debris? True

Object name: DMSP 5D-2 F13 DEB

International designator: 1995-015HL

Object number (NORAD): 42294

Object ID (CCSDS): 42294

Country: UNITED STATES OF AMERICA (US)

Current information (Y/N): Y

RCS size: SMALL

Orbital parameters

Period: 97.877 minutes

Inclination: 98.8709 deg

SMA: 7035.28 km

Apoapsis: 670.365 km

Periapsis: 643.924 km

RAAN: 210.6743 deg

Eccentricy: 0.0018792

Argument of periapsis: 185.1313 deg

Mean anomaly: 174.9701 deg

Mean motion: 14.71230506 rev/day

Mean motion (dot): 0.00030509 rev/day2

B* drag term: 0.0049216 1/REarth

Two-line elements (TLE)

Creation date: July 3, 2025, 5:26 p.m.

Reference frame: TEME

Reference center: EARTH

Epoch: July 3, 2025, 12:45 a.m. UTC

TLE line 0: 0 DMSP 5D-2 F13 DEB

TLE line 1: 1 42294U 95015HL 25184.03129513 .00030509 00000-0 49216-2 0 9996

TLE line 2: 2 42294 98.8709 210.6743 0018792 185.1313 174.9701 14.71230506523510

Live tracking on map

Real-time ground track for satellite DMSP 5D-2 F13 DEB.

In-orbit conjunctions

A list of the most updated potential collisions computed for object DMSP 5D-2 F13 DEB.

Target Orbit TCA Probability of collision Miss distance Type
COSMOS 1777 LEO 2024-10-15 15:05:29 0.0001120837 708.0 (m) PAYLOAD
COSMOS 1992 LEO 2024-08-03 10:16:41 0.0002347599 444.0 (m) PAYLOAD
MICRO LABSAT SSO 2024-06-18 14:27:22 0.0001045977 318.0 (m) PAYLOAD

Associated space launch

Military meteorological satellite

DMSP 5D-2 F13 DEB was lifted into orbit during the mission ‘Atlas E | DMSP-5D2 F13’, on board a Atlas E space rocket.

The launch took place on March 24, 1995, 2:05 p.m. from Space Launch Complex 3W.

For more information about the launch, click the button.

Launch to space Atlas E | DMSP-5D2 F13
Atlas E | DMSP-5D2 F13

Agency: N/A

Status: Launch Successful

Launch date: March 24, 1995, 2:05 p.m. UTC

Rocket: Atlas E

Launch pad: Space Launch Complex 3W

Location: Vandenberg SFB, CA, USA

...

Latest news about this satellite

There are no fresh news available about this satellite. Check back as we update our databases every day.


Newsletter sign-up

Weekly statistics, charts and insights to help you stay on top of the space industry.